{"data":{"norad_id":58414,"intl_designator":"2023-180N","name":"STARLINK-30922","alt_names":[],"object_type":"PAYLOAD","status":"ACTIVE","operator":null,"country":"US","launch_date":"2023-11-22","launch_site_code":"AFETR","launch_vehicle":null,"mission":null,"orbit_class":"UNKNOWN","rcs_meters":null,"size_class":null,"mass_kg":null,"dimensions":null,"purposes":["comms"],"wikipedia_slug":null,"has_3d_model":false,"image_url":null,"decayed_at":null,"tle_current":{"epoch":"2026-05-24T14:27:47.479968Z","epoch_age_seconds":123585,"freshness":"FRESH","line1":"1 58414U 23180N   26144.60263287  .00000648  00000+0  33057-4 0  9996","line2":"2 58414  43.0035 344.0158 0001094 267.0590  93.0137 15.27584592139236","mean_motion":15.27584592,"eccentricity":0.0001094,"inclination_deg":43.0035,"raan_deg":344.0158,"arg_perigee_deg":267.059,"mean_anomaly_deg":93.0137,"bstar":3.3057e-5,"rev_number":13923,"period_min":94.266465342824,"perigee_km":482.28473371948,"apogee_km":483.78595822878,"semimajor_km":6861.1723459741,"source":"CELESTRAK","updated_at":"2026-05-25T13:38:18.619107Z"}}}